Starlink 3131

operational
NORAD ID: 49427 Int'l Des: 2021-104 Owner: SPXS Country: US Constellation: starlink
LEOCIRCULAR

Über Starlink 3131

Beschreibung wird geladen...

Live-Position

3D-Globus wird geladen...

Nächste Überflüge

Höhenverlauf

Altitude vs Time

uPlot chart will show altitude changes over time

Zweizeiliger Elementsatz

1 49427U 21104V 25257.40757168 -.00000905 00000-0 -38806-4 0 9998
2 49427 53.2171 300.4968 0001293 85.3843 274.7296 15.08839810212020
Epoch: 14. Sept. 2025 • Age: 25 hours

Aktueller Status

Höhe 553.1 km
Geschwindigkeit 7.58 km/s
Subsatellitenpunkt -38.67°S, 2°W
Startdatum 13. Nov. 2021
Alter 3.8 years
Typ internet

Technische Details

Klassifizierung Payload
Masse 290.00 kg
Trockenmasse 270.00 kg
Gesamtmasse 290.00 kg
Länge 0.20 m
Durchmesser 2.80 m
Spannweite 9.00 m
Form Box + pan
Hersteller SPXS
Bus-Typ Starlink
Phasenstatus In Orbit
Besitzer/Staat SPXS/US

Große Konstellationen

Loading constellations...